sat.trackr.live / text

‹ back to catalog

STARLINK-32158

NORAD 60267 · 2024-131N

PAYLOAD ACTIVE UNKNOWN

§ Identity

Operator
Country
US
Launch date
2024-07-27
Launch site
AFETR
Launch vehicle
Mass (kg)
RCS (m²)

Purposes: comms

External: N2YO · Heavens-Above · Gunter

§ Orbital elements

Epoch: 2026-05-25T04:35:59.280576Z

Period
94.11 min
Inclination
53.1605°
Eccentricity
0.0001106
Mean motion
15.30192171 rev/d
Perigee alt
474.5 km
Apogee alt
476.0 km
Semi-major
6,853.4 km
B*
5.1045e-5
RAAN
56.9243°
Arg perigee
97.9207°
Mean anomaly
262.1919°
Rev number
10,333

§ Raw data

STARLINK-321581 60267U 24131N   26145.19165834  .00001153  00000+0  51045-4 0  99952 60267  53.1605  56.9243 0001106  97.9207 262.1919 15.30192171103334

JSON: /api/v1/satellites/60267 · /tle

For live sub-satellite position, see the globe view (requires WebGL).

§ Visibility from observer

Set your observer location to see the next 7 days of passes ≥ 10°. The values pass through the URL so the page stays shareable.

No JS? Fill the form by hand. The geolocation button needs JavaScript.